User: anonymous   Login
Location: NJAA Observatory
(40.6819°N, 74.8979°W)
Time: 11:56:08
(UTC-04:00)
Language:

Meteor 2-9 Rocket - Orbit

View from above orbital plane
View from above orbital plane
View from above satellite
View from above satellite

Ground track
Ground track

The orbit data is extracted from the following two-line orbital elements,

1 13719U 82116B   15241.71856091 -.00000042  00000-0 -28336-4 0  9993
2 13719 081.2534 284.4159 0072835 068.6269 070.3921 14.14552551687412
Epoch (UTC): 29 August 2015 17:14:43
Eccentricity: 0.0072835
inclination: 81.2534°
perigee height: 791 km
apogee height: 896 km
right ascension of ascending node: 284.4159°
argument of perigee: 68.6269°
revolutions per day: 14.14552551
mean anomaly at epoch: 70.3921°
orbit number at epoch: 68741

The dashed part of the orbit path shows where the satellite is in the earth's shadow,  

DLR